Campo, CA

9:02 PM PDT on May 22, 2017 (GMT -0700)
Campo

Weather History for KCZZ - January, 2013

Change the Weather History Date:

Monday, January 14, 2013

  Actual Average Record
Temperature  
Mean Temperature 38 °F 49 °F  
Max Temperature 47 °F 63 °F 83 °F (2000)
Min Temperature 28 °F 34 °F 12 °F (2007)
Degree Days  
Heating Degree Days 27 16  
Month to date heating degree days 329 235  
Since 1 July heating degree days 1327 1341  
Cooling Degree Days 0 0  
Month to date cooling degree days 0 0  
Year to date cooling degree days 0 0  
Moisture  
Dew Point 1 °F    
Average Humidity 28    
Maximum Humidity 47    
Minimum Humidity 9    
Precipitation  
Precipitation 0.00 in 0.10 in 1.70 in (1993)
Month to date precipitation 0.32 1.36  
Year to date precipitation 0.32 1.36  
Since 1 July precipitation 4.79  
Snow  
Snow 0.00 in - - ()
Month to date snowfall 0.0  
Year to date snowfall 0.0  
Snow Depth 0.00 in    
Sea Level Pressure  
Sea Level Pressure 30.15 in    
Wind  
Wind Speed 14 mph (ENE)    
Max Wind Speed 28 mph    
Max Gust Speed 33 mph    
T = Trace of Precipitation, MM = Missing Value Source: NWS Daily Summary

Daily Weather History Graph

Daily Weather History Graph

Search for Another Location

Airport or City:

Trip Planner

Search our weather history database for the weather conditions in past years. The results will help you decide how hot, cold, wet, or windy it might be!

Date:

Astronomy

Jan. 14, 2013 Rise Set
Actual Time 6:48 AM PST 5:02 PM PST
Civil Twilight 6:21 AM PST 5:28 PM PST
Nautical Twilight 5:51 AM PST 5:59 PM PST
Astronomical Twilight 5:21 AM PST 6:28 PM PST
Moon 8:37 AM PST (1/14) 8:37 PM PST (1/14)
Length of Visible Light 11h 07m
Length of Day
10h 14m
Waxing Crescent, 12% of the Moon is Illuminated
Jan 14
Waxing Crescent
Jan 18
First Quarter
Jan 26
Full
Feb 3
Last Quarter
Feb 9
New

Hourly Weather History & Observations

Time (PST) Temp. Windchill Dew Point Humidity Pressure Visibility Wind Dir Wind Speed Gust Speed Precip Events Conditions
12:52 AM 33.1 °F 26.9 °F 12.9 °F 43% 30.04 in - ENE 6.9 mph - N/A   Unknown
1:52 AM 30.9 °F 23.5 °F 12.0 °F 46% 30.06 in - ENE 8.1 mph - N/A   Unknown
2:52 AM 30.9 °F 22.2 °F 7.0 °F 37% 30.06 in - NE 10.4 mph - N/A   Unknown
3:52 AM 30.0 °F 20.0 °F 7.0 °F 38% 30.07 in - ENE 12.7 mph - N/A   Unknown
4:52 AM 30.0 °F 19.1 °F 6.1 °F 36% 30.07 in - ENE 15.0 mph - N/A   Unknown
5:52 AM 28.9 °F 19.2 °F 5.0 °F 36% 30.10 in - ENE 11.5 mph - N/A   Unknown
6:52 AM 28.9 °F 18.6 °F 3.9 °F 35% 30.13 in - ENE 12.7 mph - N/A   Unknown
7:52 AM 30.9 °F 20.2 °F 3.9 °F 32% 30.16 in - ENE 15.0 mph - N/A   Unknown
8:52 AM 34.0 °F 24.2 °F 3.0 °F 27% 30.17 in - East 15.0 mph - N/A   Unknown
9:52 AM 37.9 °F 28.9 °F 3.9 °F 24% 30.17 in - East 16.1 mph - N/A   Unknown
10:52 AM 41.0 °F 32.8 °F 1.9 °F 20% 30.14 in - ENE 16.1 mph - N/A   Unknown
11:52 AM 42.1 °F 34.2 °F -2.0 °F 16% 30.11 in - East 16.1 mph - N/A   Unknown
12:52 PM 43.0 °F 33.8 °F -2.0 °F 15% 30.10 in - East 23.0 mph 27.6 mph N/A   Unknown
1:52 PM 46.0 °F 39.0 °F -9.0 °F 10% 30.10 in - NNE 17.3 mph 26.5 mph N/A   Unknown
2:52 PM 43.0 °F 33.5 °F -2.9 °F 15% 30.13 in - NE 24.2 mph 33.4 mph N/A   Unknown
3:52 PM 42.1 °F 32.6 °F -4.0 °F 14% 30.15 in - NE 23.0 mph 28.8 mph N/A   Unknown
4:52 PM 37.0 °F 27.7 °F -2.9 °F 18% 30.18 in - ENE 16.1 mph 24.2 mph N/A   Unknown
5:52 PM 33.1 °F 24.9 °F -4.0 °F 20% 30.23 in - NNE 10.4 mph - N/A   Unknown
6:52 PM 28.0 °F 21.7 °F -0.0 °F 30% 30.25 in - Variable 5.8 mph - N/A   Unknown
7:52 PM 33.1 °F 28.7 °F -4.0 °F 20% 30.25 in - East 4.6 mph - N/A   Unknown
8:52 PM 32.0 °F 26.4 °F -2.0 °F 23% 30.25 in - NE 5.8 mph - N/A   Unknown
9:52 PM 33.1 °F 24.9 °F -2.9 °F 21% 30.25 in - NE 10.4 mph - N/A   Unknown
10:52 PM 30.0 °F 24.1 °F -0.0 °F 28% 30.25 in - ESE 5.8 mph - N/A   Unknown
11:52 PM 33.1 °F 25.5 °F -4.0 °F 20% 30.25 in - NE 9.2 mph - N/A   Unknown